Location: O'Brien
(30.0517°N, 82.9900°W)
Time: 19:58:28
(UTC-04:00)

N. Korean satellite - Visible Passes

Search period start: 22 October 2019 00:00
Search period end: 01 November 2019 00:00
Orbit: 455 x 508 km, 97.2° (Epoch: 22 October)

Date Brightness Start Highest point End Pass type
(mag) Time Alt. Az. Time Alt. Az. Time Alt. Az.
22 Oct 10.4 06:21:32 10° ENE 06:22:43 11° E 06:23:55 10° ESE visible
23 Oct 9.8 19:31:15 10° SW 19:33:44 19° W 19:36:14 10° NW visible
24 Oct 8.0 07:02:05 10° NNE 07:05:37 45° E 07:09:11 10° S visible
25 Oct 9.7 06:37:30 10° NE 06:40:16 20° E 06:43:02 10° SE visible
26 Oct 10.5 19:50:32 10° WSW 19:51:15 10° W 19:51:58 10° W visible
27 Oct 9.3 19:22:58 10° SSW 19:25:48 24° W 19:28:40 10° NW visible
28 Oct 8.6 06:54:20 10° NNE 06:57:45 35° E 07:01:10 10° SSE visible
29 Oct 10.0 06:30:02 10° NE 06:32:21 16° E 06:34:40 10° SE visible
30 Oct 10.0 19:41:25 10° SW 19:43:16 14° W 19:45:08 10° WNW visible
31 Oct 7.2 07:11:29 10° NNE 07:15:11 66° E 07:18:52 10° S visible
31 Oct 8.7 19:14:44 10° SSW 19:17:51 32° W 19:21:00 10° NNW visible
